This is the latest recevied weather packets stored in our database for station/object WA6OOO. If no packets are shown the sender has not sent any weather packets the latest 10 day(s).
| Time | Temp. | Humidity | Pressure | Rain* | Wind** | Luminosity | Snow |
|---|---|---|---|---|---|---|---|
| 1777583393 | 19.44° C | 66% | 1014.6 hPa | 0 mm | - | 746 W/m² | - |
| 1777583091 | 19.44° C | 66% | 1014.7 hPa | 0 mm | - | 755 W/m² | - |
| 1777582788 | 20° C | 64% | 1014.9 hPa | 0 mm | - | 760 W/m² | - |
| 1777582484 | 19.44° C | 65% | 1014.9 hPa | 0 mm | - | 766 W/m² | - |
| 1777582179 | 19.44° C | 64% | 1014.7 hPa | 0 mm | - | 769 W/m² | - |
| 1777581878 | 19.44° C | 65% | 1014.7 hPa | 0 mm | - | 773 W/m² | - |
| 1777581572 | 20° C | 65% | 1014.7 hPa | 0 mm | - | 775 W/m² | - |
| 1777581268 | 19.44° C | 66% | 1014.7 hPa | 0 mm | - | 779 W/m² | - |
| 1777580963 | 18.89° C | 69% | 1014.9 hPa | 0 mm | - | 781 W/m² | - |
| 1777580657 | 18.89° C | 69% | 1014.8 hPa | 0 mm | - | 782 W/m² | - |
| 1777580353 | 19.44° C | 67% | 1014.9 hPa | 0 mm | - | 785 W/m² | - |
| 1777580049 | 19.44° C | 69% | 1014.8 hPa | 0 mm | - | 784 W/m² | - |
| 1777579746 | 19.44° C | 68% | 1015 hPa | 0 mm | - | 784 W/m² | - |
| 1777579444 | 19.44° C | 68% | 1014.9 hPa | 0 mm | - | 786 W/m² | - |
| 1777579139 | 19.44° C | 68% | 1015 hPa | 0 mm | - | 787 W/m² | - |
| 1777578838 | 19.44° C | 68% | 1014.9 hPa | 0 mm | - | 783 W/m² | - |
| 1777578535 | 18.89° C | 69% | 1015.1 hPa | 0 mm | - | 783 W/m² | - |
| 1777578229 | 18.89° C | 70% | 1015.1 hPa | 0 mm | - | 783 W/m² | - |
| 1777577925 | 19.44° C | 68% | 1015.2 hPa | 0 mm | - | 781 W/m² | - |
| 1777577621 | 18.89° C | 70% | 1015.3 hPa | 0 mm | - | 780 W/m² | - |
| 1777577318 | 18.89° C | 70% | 1015.3 hPa | 0 mm | - | 779 W/m² | - |
| 1777577014 | 19.44° C | 69% | 1015.4 hPa | 0 mm | - | 778 W/m² | - |
| 1777576712 | 19.44° C | 69% | 1015.5 hPa | 0 mm | - | 775 W/m² | - |
| 1777576410 | 18.89° C | 70% | 1015.4 hPa | 0 mm | - | 773 W/m² | - |
| 1777576108 | 19.44° C | 69% | 1015.5 hPa | 0 mm | - | 772 W/m² | - |
* Rain latest hour (hover to see other rain measurements)
** Current wind speed in m/s (hover to see current wind gust speed)